Terug naar catalogus

ONEWEB-0686

ActiefCommunicatiePO
NORAD 56721·PAYLOAD·🇬🇧 United Kingdom

Gelanceerd May 20, 2023 vanaf Vandenberg Space Force Base

Loading…

Volgende Passages (komende 24 uur)

TLE

VersSource: CelesTrak SupGP

Epoch: Sep 14, 2026, 14:21 UTC

1 56721C 23068M   26257.59843009 -.00000439  00000+0 -11495-2 0  2576
2 56721  87.9134 211.0320 0001769  76.2180  27.7094 13.16590638    13

Volg ONEWEB-0686 in realtime met AllMySat

Download on the App Store